Location: Bremen
(53.0793°N, 8.8017°E)
Time: 23:36:42
(UTC+02:00)

Altair - Pass Details

Date: 21 April 2024
Orbit: 1501 x 1682 km, 47.2° (Epoch: 19 May)

Event Time Altitude Azimuth Distance (km) Brightness Sun altitude
Rises 01:38:39 0° 282° (WNW) 4,847 10.2 -24.9°
Reaches altitude 10° 01:42:03 10° 276° (W) 3,834 9.6 -24.8°
Maximum altitude 01:50:48 40° 212° (SSW) 2,164 7.8 -24.7°
Enters shadow 01:51:28 40° 202° (SSW) 2,173 7.8 -24.7°
Drops below altitude 10° 01:59:15 10° 147° (SSE) 3,697 - -24.5°
Sets 02:02:28 0° 140° (SE) 4,659 - -24.4°
